[[{"header":{"parameterUnit":"m.s-1","parameterCategory":1,"la1":30.2991,"la2":30.254,"lo1":-89.0895,"lo2":-89.0444,"dy":0.0017,"dx":0.0017,"nx":28,"ny":28,"refTime":"2026-03-04T09:00:00:Z","depth":0,"parameterNumber":2,"parameterNumberName":"U-component_of_WINDS"},"data":[0,0,0,0,0,0,0,0,0,0,0,0,0,0,0,0,0,0,0,0,0,0,0,0,0,0,0,0,0,0,0,0,0,0,0,0,0,0,0,0,0,0,0,0,0,0,0,0,0,0,0,0,0,0,0,0,0,0,-3.4738,-3.4738,0,-3.4746,-3.4746,-3.4746,-3.4693,-3.4691,-3.469,-3.4688,-3.4697,-3.4699,-3.47,0,0,0,0,0,0,0,0,0,0,0,0,0,-3.4681,-3.4683,-3.4738,-3.4738,-3.4738,-3.4746,-3.4746,-3.4746,-3.4693,-3.4691,-3.469,-3.4688,-3.4697,-3.4699,-3.47,0,0,0,0,0,0,0,0,0,0,0,0,0,-3.4699,-3.4683,-3.4738,-3.4713,-3.4711,-3.4746,-3.4746,-3.4746,-3.4694,-3.4691,-3.4689,-3.4687,-3.4696,-3.4698,-3.4701,-3.4761,0,0,-3.4708,-3.4709,0,0,0,0,0,0,0,0,-3.4698,-3.4701,-3.4717,-3.4715,-3.4712,-3.4716,-3.4729,-3.4751,-3.4694,-3.47,-3.4688,-3.4686,-3.4705,-3.4707,-3.4713,-3.4761,-3.4762,-3.4708,-3.471,-3.4711,-3.4712,0,0,0,0,0,0,0,-3.4697,-3.4701,-3.4741,-3.4717,-3.4714,-3.4702,-3.4702,-3.4733,-3.4715,-3.4699,-3.4696,-3.4697,-3.4704,-3.4711,-3.4713,-3.4762,-3.4708,-3.471,-3.4712,-3.4713,-3.4862,-3.4864,0,0,0,0,0,0,-3.4699,-3.47,-3.4741,-3.4741,-3.47,-3.4705,-3.4705,-3.4717,-3.4715,-3.4712,-3.4699,-3.4695,-3.4708,-3.471,-3.4713,-3.4784,-3.4711,-3.4713,-3.4715,-3.486,-3.4863,-3.4865,0,0,0,0,0,0,-3.4698,-3.4703,-3.4741,-3.472,-3.4724,-3.4709,-3.4722,-3.4719,-3.4726,-3.4714,-3.4711,-3.4709,-3.4706,-3.471,-3.475,-3.4783,-3.4714,-3.4716,-3.4857,-3.4861,-3.4864,-3.4925,0,0,0,0,0,0,-3.4696,-3.4703,-3.4724,-3.4721,-3.4725,-3.4776,-3.4724,-3.472,-3.473,-3.4724,-3.4723,-3.4721,-3.4705,-3.4746,-3.4752,-3.4785,-3.4718,-3.4853,-3.4858,-3.4863,-3.492,-3.4931,-3.494,0,0,0,0,0,-3.4695,-3.4741,-3.4726,-3.4731,-3.4751,-3.4778,-3.4781,-3.4761,-3.4733,-3.4755,-3.4749,-3.4721,-3.478,-3.4751,-3.4757,-3.4791,-3.4851,-3.4857,-3.4862,-3.4916,-3.4929,-3.4939,0,0,0,0,0,0,-3.4748,-3.474,-3.4723,-3.4769,-3.4775,-3.4769,-3.4796,-3.4775,-3.4788,-3.4782,-3.4758,-3.4758,-3.4803,-3.4802,-3.477,-3.4851,-3.4811,-3.4818,-3.4849,-3.4861,-3.4871,-3.4869,-3.472,0,0,0,0,0,-3.4765,-3.4787,-3.4779,-3.4821,-3.4825,-3.4811,-3.4821,-3.4806,-3.4811,-3.4813,-3.4809,-3.4816,-3.4836,-3.4849,-3.4866,-3.4921,-3.4921,-3.4948,-3.4958,-3.4966,-3.4972,-3.5002,-3.5015,-3.4884,-3.4884,-3.4884,0,0,-3.4801,-3.4799,-3.4814,-3.4832,-3.4834,-3.4858,-3.4812,-3.4839,-3.4857,-3.4817,-3.4854,-3.4853,-3.4858,-3.4907,-3.4928,-3.4907,-3.5009,-3.4974,-3.498,-3.4981,-3.5009,-3.5022,-3.5033,-3.4888,-3.4887,-3.4886,0,0,-3.4877,-3.4878,-3.4914,-3.4918,-3.4923,-3.4914,-3.4923,-3.4922,-3.4919,-3.4957,-3.4928,-3.495,-3.4984,-3.499,-3.4997,-3.5082,-3.5058,-3.5089,-3.5139,-3.5169,-3.5179,-3.5188,-3.5218,-3.5229,-3.5095,-3.5096,-3.5096,0,-3.492,-3.4954,-3.4935,-3.4964,-3.4973,-3.494,-3.4977,-3.4982,-3.4993,-3.5001,-3.4978,-3.5023,-3.5025,-3.5074,-3.5095,-3.5103,-3.5113,-3.5087,-3.5179,-3.5188,-3.5196,-3.5224,-3.5236,-3.5099,-3.5099,-3.5098,-3.5098,0,-3.5007,-3.5032,-3.5061,-3.5072,-3.5086,-3.5119,-3.5105,-3.5121,-3.5107,-3.5101,-3.5141,-3.5143,-3.5161,-3.5172,-3.5158,-3.5221,-3.5208,-3.5183,-3.5141,-3.5212,-3.5238,-3.5249,-3.5104,-3.5103,-3.5102,-3.5101,0,0,-3.5112,-3.5116,-3.5127,-3.5133,-3.5139,-3.5158,-3.5192,-3.521,-3.5224,-3.5235,-3.5262,-3.5295,-3.5272,-3.5281,-3.5268,-3.5295,-3.5362,-3.5266,-3.5266,-3.5283,-3.5433,-3.545,-3.5462,-3.5348,-3.535,-3.5351,-3.5432,0,-3.5186,-3.5241,-3.5227,-3.5282,-3.5306,-3.5277,-3.5307,-3.5314,-3.5311,-3.5332,-3.5328,-3.5352,-3.5321,-3.5326,-3.5352,-3.5348,-3.5391,-3.5343,-3.5373,-3.5374,-3.5369,-3.5476,-3.5493,-3.5569,-3.5442,-3.5444,-3.5445,0,-3.5278,-3.5293,-3.5351,-3.5355,-3.5365,-3.5391,-3.5408,-3.5428,-3.5438,-3.5434,-3.5446,-3.5429,-3.5463,-3.5425,-3.5473,-3.544,-3.5453,-3.5454,-3.5456,-3.5456,-3.5411,-3.5477,-3.5592,-3.5603,-3.5461,-3.546,-3.5458,0,-3.5347,-3.5383,-3.5422,-3.5428,-3.5435,-3.5454,-3.5458,-3.5466,-3.5479,-3.5495,-3.5504,-3.5524,-3.5534,-3.5551,-3.5541,-3.5513,-3.5591,-3.5551,-3.5588,-3.5589,-3.5603,-3.5601,-3.572,-3.5615,-3.5615,-3.5615,-3.5615,0,-3.5429,-3.5466,-3.5454,-3.5477,-3.5519,-3.5504,-3.5545,-3.5546,-3.5554,-3.5579,-3.5557,-3.5581,-3.5566,-3.559,-3.5583,-3.5624,-3.5629,-3.5627,-3.5624,-3.5628,-3.5628,-3.5633,-3.5627,-3.5618,-3.5617,-3.5616,-3.5616,0,-3.5512,-3.5505,-3.5546,-3.5551,-3.5553,-3.5583,-3.5587,-3.5611,-3.5608,-3.564,-3.5647,-3.5643,-3.5669,-3.5662,-3.5691,-3.5686,-3.5738,-3.5729,-3.5734,-3.5731,-3.5769,-3.5765,-3.5892,-3.5909,-3.5796,-3.5797,-3.5798,0,-3.5563,-3.5591,-3.5599,-3.5614,-3.562,-3.5645,-3.5659,-3.5648,-3.5663,-3.5679,-3.5701,-3.5726,-3.5745,-3.579,-3.579,-3.5813,-3.5804,-3.5847,-3.5806,-3.581,-3.5803,-3.58,-3.5803,-3.5854,-3.5855,-3.5856,-3.5857,0,-3.5655,-3.5651,-3.5672,-3.5693,-3.5711,-3.5726,-3.574,-3.5754,-3.5744,-3.5764,-3.5791,-3.5806,-3.5838,-3.5863,-3.5885,-3.589,-3.5873,-3.5871,-3.588,-3.5883,-3.5884,-3.5883,-3.5754,-3.5867,-3.5866,-3.5865,-3.5865,-3.5864,-3.5722,-3.5746,-3.5756,-3.5781,-3.5791,-3.5806,-3.5828,-3.583,-3.5853,-3.5877,-3.587,-3.5902,-3.5914,-3.5942,-3.5951,-3.5976,-3.596,-3.5974,-3.5977,-3.598,-3.5984,-3.5883,-3.5981,-3.598,-3.598,-3.598,-3.598,0,-3.5811,-3.5818,-3.5841,-3.5862,-3.5883,-3.5866,-3.5882,-3.59,-3.5928,-3.5942,-3.5962,-3.5996,-3.6022,-3.6026,-3.6051,-3.6071,-3.6063,-3.6078,-3.6075,-3.6076,-3.5998,-3.5986,-3.6083,-3.6083,-3.6083,-3.6083,-3.6083,-3.6083,-3.586,-3.59,-3.5898,-3.5944,-3.5951,-3.5982,-3.5993,-3.6007,-3.6017,-3.6056,-3.6078,-3.6081,-3.6091,-3.6117,-3.6141,-3.6142,-3.6152,-3.6169,-3.6166,-3.6092,-3.6082,-3.6072,-3.6061,-3.6171,-3.6172,-3.6242,-3.6243,-3.6243]},{"header":{"parameterUnit":"m.s-1","parameterCategory":1,"la1":30.2991,"la2":30.254,"lo1":-89.0895,"lo2":-89.0444,"dy":0.0017,"dx":0.0017,"nx":28,"ny":28,"refTime":"2026-03-04T09:00:00:Z","depth":0,"parameterNumber":3,"parameterNumberName":"V-component_of_WINDS"},"data":[0,0,0,0,0,0,0,0,0,0,0,0,0,0,0,0,0,0,0,0,0,0,0,0,0,0,0,0,0,0,0,0,0,0,0,0,0,0,0,0,0,0,0,0,0,0,0,0,0,0,0,0,0,0,0,0,0,0,1.2204,1.2205,0,1.2275,1.2276,1.2277,1.2398,1.24,1.2403,1.2405,1.2473,1.2472,1.2472,0,0,0,0,0,0,0,0,0,0,0,0,0,1.217,1.217,1.2204,1.2205,1.2206,1.2275,1.2276,1.2277,1.2398,1.2401,1.2403,1.2406,1.2473,1.2472,1.2472,0,0,0,0,0,0,0,0,0,0,0,0,0,1.2207,1.217,1.2204,1.2275,1.2282,1.2275,1.2276,1.2277,1.2397,1.2401,1.2404,1.2407,1.2473,1.2472,1.2472,1.24,0,0,1.247,1.247,0,0,0,0,0,0,0,0,1.2205,1.2208,1.2263,1.227,1.2278,1.2332,1.2289,1.2318,1.2396,1.2353,1.2405,1.2409,1.2423,1.2426,1.2432,1.2404,1.2406,1.247,1.247,1.247,1.247,0,0,0,0,0,0,0,1.2202,1.2206,1.2232,1.2264,1.2273,1.2302,1.2311,1.2295,1.2368,1.2357,1.2366,1.2373,1.2427,1.2432,1.2435,1.2407,1.247,1.247,1.247,1.2469,1.2326,1.2322,0,0,0,0,0,0,1.219,1.2203,1.223,1.2234,1.2249,1.23,1.231,1.2311,1.2368,1.238,1.237,1.2379,1.2431,1.2435,1.2437,1.2359,1.247,1.2469,1.2469,1.2329,1.2325,1.2321,0,0,0,0,0,0,1.2188,1.2191,1.2227,1.2221,1.2228,1.2297,1.2297,1.231,1.2316,1.2378,1.2391,1.2362,1.2434,1.2438,1.241,1.2363,1.2469,1.2469,1.2333,1.2328,1.2323,1.22,0,0,0,0,0,0,1.2187,1.219,1.2164,1.222,1.2228,1.2198,1.2294,1.2309,1.2315,1.2327,1.2374,1.2385,1.2437,1.241,1.2409,1.2364,1.2468,1.2338,1.2331,1.2325,1.2208,1.2191,1.2176,0,0,0,0,0,1.2185,1.2125,1.2162,1.2165,1.2197,1.2196,1.22,1.2262,1.2311,1.2285,1.2326,1.2384,1.2368,1.2406,1.2406,1.236,1.2341,1.2333,1.2325,1.2216,1.2195,1.2177,0,0,0,0,0,0,1.206,1.2133,1.2175,1.2131,1.2157,1.2216,1.2185,1.2238,1.2248,1.2259,1.2334,1.2344,1.2305,1.233,1.2371,1.2295,1.2364,1.2355,1.228,1.2261,1.2245,1.224,1.2468,0,0,0,0,0,1.2027,1.2021,1.2085,1.204,1.2051,1.2116,1.2117,1.2164,1.2192,1.2203,1.2241,1.2265,1.2266,1.2265,1.2269,1.2213,1.2225,1.2182,1.2165,1.2152,1.2144,1.2117,1.2099,1.2295,1.2295,1.2295,0,0,1.1959,1.1999,1.199,1.2016,1.2041,1.2032,1.2124,1.211,1.2104,1.22,1.2176,1.2205,1.2237,1.2195,1.2178,1.2214,1.2093,1.2142,1.213,1.213,1.2107,1.2089,1.2072,1.229,1.2291,1.2291,0,0,1.1832,1.1861,1.1827,1.1851,1.1889,1.1932,1.1924,1.1976,1.2,1.1978,1.205,1.2043,1.2043,1.2063,1.2073,1.1955,1.2009,1.1954,1.187,1.1843,1.1828,1.1814,1.1773,1.1757,1.1946,1.1945,1.1945,0,1.1742,1.1733,1.1803,1.1786,1.1795,1.1884,1.1851,1.187,1.1905,1.1909,1.195,1.1953,1.198,1.1945,1.1916,1.1921,1.1914,1.1949,1.1824,1.1812,1.18,1.1762,1.1746,1.1939,1.1939,1.194,1.1941,0,1.1622,1.1614,1.1583,1.1618,1.1624,1.1598,1.1663,1.1661,1.1707,1.1746,1.1722,1.1759,1.1773,1.1768,1.1811,1.1739,1.176,1.1811,1.1882,1.1774,1.1739,1.1724,1.1929,1.1931,1.1933,1.1935,0,0,1.1416,1.1492,1.1479,1.1496,1.1545,1.154,1.1519,1.1534,1.1531,1.1553,1.1537,1.1535,1.1584,1.1595,1.1642,1.1618,1.1524,1.1673,1.1675,1.1644,1.1447,1.1408,1.139,1.156,1.1558,1.1556,1.1445,0,1.1298,1.1268,1.1331,1.1285,1.1279,1.1364,1.1346,1.1373,1.1409,1.1409,1.1449,1.1447,1.151,1.1518,1.1499,1.1539,1.1485,1.1548,1.1545,1.1544,1.1535,1.1372,1.1331,1.1224,1.1431,1.1429,1.1427,0,1.1157,1.1175,1.1129,1.1182,1.1182,1.1164,1.1185,1.1183,1.1216,1.1244,1.1258,1.1314,1.1296,1.1364,1.1341,1.1382,1.1385,1.1405,1.1402,1.1405,1.1479,1.137,1.1192,1.1176,1.1406,1.1408,1.1409,0,1.1013,1.1025,1.0999,1.1011,1.1073,1.1058,1.1083,1.1119,1.1125,1.1142,1.1147,1.1161,1.1168,1.1177,1.1235,1.1279,1.1205,1.1278,1.1228,1.1226,1.1208,1.1208,1.1028,1.1208,1.1209,1.1209,1.1209,0,1.0876,1.0844,1.0936,1.0919,1.0887,1.096,1.0925,1.0958,1.099,1.0981,1.1055,1.1045,1.1122,1.1121,1.1166,1.114,1.1142,1.1164,1.1177,1.1158,1.1155,1.1161,1.117,1.1205,1.1206,1.1207,1.1207,0,1.0709,1.0768,1.0747,1.0807,1.0822,1.0795,1.0846,1.0834,1.0876,1.0864,1.0866,1.093,1.0933,1.0992,1.1006,1.1036,1.0992,1.1018,1.0981,1.099,1.0937,1.0941,1.0754,1.0733,1.0926,1.0924,1.0922,0,1.0617,1.0596,1.0655,1.0655,1.0677,1.0677,1.0684,1.0754,1.0759,1.0796,1.0778,1.0787,1.0798,1.0797,1.0845,1.0856,1.0883,1.0817,1.0885,1.0868,1.0883,1.0884,1.0883,1.0802,1.08,1.0798,1.0796,0,1.0449,1.0481,1.0489,1.0508,1.0515,1.0532,1.0555,1.055,1.0628,1.0629,1.0634,1.0642,1.0658,1.0665,1.0686,1.071,1.0766,1.0775,1.0764,1.0745,1.0725,1.0736,1.0942,1.0778,1.078,1.0782,1.0783,1.0783,1.0318,1.0303,1.0343,1.035,1.0375,1.0395,1.0387,1.0428,1.0434,1.0454,1.0495,1.0493,1.0527,1.0561,1.0581,1.058,1.0613,1.0597,1.0593,1.0588,1.0578,1.0725,1.0583,1.0584,1.0585,1.0585,1.0586,0,1.0155,1.0185,1.0191,1.0221,1.0227,1.0281,1.0309,1.0309,1.0307,1.0336,1.0346,1.0351,1.0359,1.0408,1.0422,1.0412,1.0438,1.0413,1.0415,1.042,1.0547,1.0556,1.0392,1.0392,1.0392,1.0392,1.0392,1.0392,1.007,1.0049,1.0085,1.0076,1.0107,1.0107,1.0119,1.0137,1.016,1.0164,1.0172,1.0205,1.0241,1.0259,1.0269,1.0283,1.0285,1.0251,1.0274,1.0392,1.041,1.0428,1.0437,1.0251,1.0251,1.0147,1.0146,1.0145]}]]